www.pogodaiklimat.ru

Погода и климат >> Архив погоды >> Венгрия >> Сентготтхард


ПОГОДА в Сентготтхарде

  • Прогноз погоды в Сентготтхарде
  • Монитор погоды в Сентготтхарде

АРХИВ ПОГОДЫ в Сентготтхарде

Время (UTC), дата Ветер
(напр.,м/с)
 
Видим.   Явления Облачность Т
(С)
Тd
(С)
f
(%)
Тe
(С)
Тes
(С)
Комфортность P
(гПа)
Po
(гПа)
Тmin
(С)
Tmax
(С)
R
(мм)
R24
(мм)
S
(см)
01 13.06 штиль 0 н/о н/о +19.3 +17.8 91 +21 +21 комфорт 1011.7 975.4
02 13.06 ЮВ 1 н/о н/о +18.5 +17.5 94 +20 +20 1011.6 975.2
03 13.06 штиль 0 н/о н/о +18.2 +17.6 96 +19 +19 1011.9 975.5
04 13.06 штиль 0 н/о н/о +18.4 +17.8 96 +19 +19 1012.2 975.8
05 13.06 Ю 1 н/о н/о +21.5 +18.5 83 +26 +26 душно 1012.2 976.2
06 13.06 штиль 0 н/о н/о +24.3 +19.6 75 +30 +30 очень
душно
1012.2 976.5 +18.1
07 13.06 Ю 2 н/о н/о +25.9 +19.5 68 +31 +31 очень
душно
1012.2 976.7
08 13.06 Ю 2 н/о н/о +27.5 +20.1 64 +34 +34 очень
душно
1012.3 977.0
09 13.06 Ю 2 н/о н/о +28.7 +19.3 57 +34 +34 очень
душно
1012.2 977.0
10 13.06 Ю 3
{7}
н/о н/о +29.6 +18.7 52 +35 +35 очень
душно
1012.1 977.0
11 13.06 Ю 3
{7}
н/о н/о +30.2 +17.6 47 +34 +34 очень
душно
1011.9 976.9
12 13.06 Ю 3
{8}
н/о н/о +30.9 +18.6 48 +36 +36 очень
душно
1011.4 976.5
13 13.06 Ю 3
{7}
н/о н/о +30.6 +18.3 48 +35 +35 очень
душно
1011.4 976.4
14 13.06 Ю 3
{9}
н/о н/о +30.5 +17.2 45 +34 +34 очень
душно
1011.4 976.4
15 13.06 Ю 4
{9}
н/о н/о +29.7 +16.2 44 +33 +33 душно 1011.5 976.4
16 13.06 ЮЗ 3
{9}
н/о н/о +28.7 +15.9 46 +32 +32 душно 1011.5 976.3
17 13.06 Ю 3
{8}
н/о н/о +27.6 +15.9 49 +31 +31 душно 1011.5 976.2
18 13.06 Ю 2 н/о н/о +25.3 +15.0 53 +28 +28 жарко 1011.9 976.3 +31.2
19 13.06 Ю 2 н/о н/о +23.5 +13.7 54 +26 +26 жарко 1012.2 976.4
20 13.06 Ю 2 н/о н/о +21.9 +12.7 56 +24 +24 комфорт 1012.9 976.9
21 13.06 ЮЗ 2 н/о н/о +20.5 +12.5 60 +23 +23 комфорт 1013.2 977.0
22 13.06 ЮЗ 1 н/о н/о +19.9 +11.9 60 +23 +23 комфорт 1013.9 977.6
23 13.06 Ю 1 н/о н/о +17.9 +12.1 69 +19 +19 1014.3 977.7
00 14.06 ЮЗ 1 н/о н/о +16.7 +12.0 74 +18 +18 1014.8 978.1
01 14.06 ЮЗ 1 н/о н/о +16.1 +12.1 77 +17 +17 1014.9 978.1
02 14.06 СЗ 1 н/о н/о +16.3 +11.9 75 +17 +17 1015.0 978.2
03 14.06 С 1 н/о н/о +16.5 +12.3 76 +17 +17 1015.8 979.0
04 14.06 С 1 н/о н/о +16.9 +13.2 79 +18 +18 1016.7 979.9
05 14.06 штиль 0 н/о н/о +18.9 +14.2 74 +20 +20 1017.0 980.5
06 14.06 штиль 0 н/о н/о +22.9 +16.7 68 +28 +28 душно 1017.2 981.1 +15.6
07 14.06 ЮВ 1 н/о н/о +24.5 +16.2 60 +28 +28 душно 1018.1 982.2
08 14.06 З 1 н/о н/о +26.5 +17.8 59 +31 +31 душно 1017.9 982.2
09 14.06 З 1 н/о н/о +27.9 +18.0 55 +32 +32 душно 1017.7 982.2
10 14.06 СЗ 1 н/о н/о +28.7 +18.5 54 +34 +34 очень
душно
1017.8 982.4
11 14.06 Ю 1 н/о н/о +29.8 +18.3 50 +35 +35 очень
душно
1017.7 982.4
12 14.06 З 2 н/о н/о +30.2 +17.3 46 +34 +34 очень
душно
1017.4 982.2
13 14.06 ЮЗ 2 н/о н/о +30.8 +18.2 47 +35 +35 очень
душно
1016.8 981.7
14 14.06 ЮЗ 2 н/о н/о +31.1 +17.8 45 +35 +35 очень
душно
1016.5 981.4
15 14.06 Ю 1 н/о н/о +30.4 +17.5 46 +34 +34 очень
душно
1016.1 981.0
16 14.06 Ю 2 н/о н/о +29.3 +17.2 48 +33 +33 душно 1016.2 980.9
17 14.06 Ю 1 н/о н/о +28.0 +16.9 51 +32 +32 душно 1015.9 980.5
18 14.06 Ю 1 н/о н/о +26.1 +18.3 62 +31 +31 очень
душно
1016.1 980.5 +31.3
19 14.06 штиль 0 н/о н/о +23.3 +18.6 75 +29 +29 душно 1016.6 980.6
20 14.06 ЮЗ 1 н/о н/о +22.2 +18.2 78 +27 +27 душно 1016.9 980.8
21 14.06 штиль 0 н/о н/о +21.2 +17.8 81 +25 +25 комфорт 1017.0 980.7
22 14.06 ЮЗ 1 н/о н/о +20.0 +17.2 84 +24 +24 комфорт 1016.8 980.4
23 14.06 ЮЗ 1 н/о н/о +20.0 +16.8 82 +24 +24 комфорт 1016.7 980.3
00 15.06 штиль 0 н/о н/о +18.9 +16.7 87 +20 +20 1016.4 979.9
01 15.06 Ю 1 н/о н/о +18.2 +16.5 90 +20 +20 1016.0 979.4
02 15.06 штиль 0 н/о н/о +17.9 +16.6 92 +18 +18 1015.6 979.0
03 15.06 штиль 0 н/о н/о +17.0 +16.2 95 +17 +17 1015.6 978.9
04 15.06 З 1 н/о н/о +17.3 +16.3 94 +18 +18 1015.4 978.7
05 15.06 штиль 0 н/о н/о +20.3 +17.3 83 +23 +23 комфорт 1015.0 978.7
06 15.06 Ю 2 н/о н/о +22.9 +18.4 76 +29 +29 очень
душно
1014.7 978.7 +17.0
07 15.06 Ю 1 н/о н/о +25.1 +18.3 66 +30 +30 душно 1014.6 978.9
08 15.06 ЮВ 2 н/о н/о +25.9 +18.8 65 +31 +31 очень
душно
1014.5 978.9
09 15.06 Ю 2 н/о н/о +26.8 +18.7 61 +32 +32 очень
душно
1014.2 978.7
10 15.06 Ю 2 н/о н/о +27.8 +19.6 61 +34 +34 очень
душно
1014.2 978.8
11 15.06 Ю 2 н/о н/о +28.8 +19.2 56 +34 +34 очень
душно
1013.7 978.5
12 15.06 Ю 2 н/о н/о +30.6 +19.6 52 +37 +37 очень
душно
1013.1 978.1
13 15.06 Ю 2 н/о н/о +29.4 +19.1 54 +35 +35 очень
душно
1013.1 977.9
14 15.06 Ю 2 н/о н/о +28.3 +19.5 59 +34 +34 очень
душно
1012.9 977.6
15 15.06 Ю 2 н/о н/о +29.5 +19.2 54 +35 +35 очень
душно
1011.7 976.6
16 15.06 ЮВ 2 н/о н/о +28.6 +20.3 61 +35 +35 очень
душно
1011.2 976.0
17 15.06 Ю 2 н/о н/о +27.3 +19.4 62 +33 +33 очень
душно
1011.4 976.1
18 15.06 Ю 1 н/о н/о +25.3 +19.0 68 +30 +30 душно 1011.5 975.9 +30.7
19 15.06 штиль 0 н/о н/о +22.9 +18.9 78 +29 +29 очень
душно
1011.7 975.8
20 15.06 штиль 0 н/о н/о +21.3 +18.5 84 +26 +26 душно 1012.4 976.3
21 15.06 штиль 0 н/о н/о +20.7 +18.1 85 +24 +24 комфорт 1012.6 976.4
22 15.06 Ю 1 н/о н/о +20.2 +17.6 85 +24 +24 комфорт 1012.7 976.5
23 15.06 штиль 0 н/о н/о +19.6 +17.2 86 +22 +22 комфорт 1012.9 976.6
00 16.06 штиль 0 н/о н/о +18.9 +17.2 90 +20 +20 1012.7 976.3
01 16.06 С 1 н/о н/о +19.1 +17.4 90 +22 +22 комфорт 1012.3 976.0
02 16.06 штиль 0 н/о н/о +18.7 +16.9 89 +20 +20 1012.5 976.1
03 16.06 В 2 н/о н/о +20.1 +17.5 85 +24 +24 комфорт 1012.3 976.1
04 16.06 В 1 н/о н/о +20.3 +17.1 82 +25 +25 комфорт 1012.6 976.4
05 16.06 СВ 1 н/о н/о +22.0 +16.9 73 +26 +26 душно 1012.8 976.8
06 16.06 В 2 н/о н/о +23.3 +17.3 69 +29 +29 душно 1013.2 977.3 +18.5
07 16.06 СВ 2
{7}
н/о н/о +24.8 +17.5 64 +29 +29 душно 1013.8 978.1
08 16.06 В 2 н/о н/о +26.0 +17.4 59 +30 +30 душно 1014.1 978.5
09 16.06 В 3 н/о н/о +25.5 +17.2 60 +29 +29 душно 1014.6 978.9
10 16.06 СВ 2
{7}
н/о н/о +23.7 +17.2 67 +28 +28 душно 1014.5 978.6
11 16.06 В 3
{8}
н/о н/о +26.5 +18.4 61 +31 +31 душно 1014.7 979.2
12 16.06 В 4
{9}
н/о н/о +27.2 +17.7 56 +31 +31 душно 1014.4 978.9 0.2
13 16.06 СВ 3
{8}
н/о н/о +26.8 +15.8 51 +30 +30 душно 1013.9 978.4
14 16.06 СВ 3
{9}
н/о н/о +27.6 +15.6 48 +31 +31 душно 1013.7 978.3
15 16.06 СВ 4
{10}
н/о н/о +26.3 +14.4 48 +29 +29 жарко 1014.0 978.5
16 16.06 СВ 3
{11}
н/о н/о +25.4 +14.8 52 +28 +28 жарко 1014.7 979.0
17 16.06 СВ 2
{9}
н/о н/о +24.3 +14.4 54 +27 +27 жарко 1015.6 979.8
18 16.06 С 3
{8}
н/о н/о +23.0 +12.9 53 +26 +26 жарко 1015.8 979.8 +28.0 0.2
19 16.06 В 2
{8}
н/о н/о +22.2 +12.7 55 +25 +25 комфорт 1017.5 981.3
20 16.06 СВ 2 н/о н/о +21.2 +13.9 63 +24 +24 комфорт 1018.6 982.3
21 16.06 СВ 2 н/о н/о +20.4 +13.8 66 +23 +23 комфорт 1018.8 982.4
22 16.06 С 1 н/о н/о +19.9 +13.8 68 +23 +23 комфорт 1018.1 981.6
23 16.06 С 1 н/о н/о +19.3 +13.7 70 +22 +22 комфорт 1018.0 981.5
00 17.06 С 2
{7}
н/о н/о +19.8 +13.3 66 +22 +22 комфорт 1018.7 982.2
01 17.06 С 2 н/о н/о +19.3 +13.0 67 +21 +21 комфорт 1018.6 982.1
02 17.06 штиль 0 н/о н/о +17.4 +13.3 77 +17 +17 1019.0 982.2
03 17.06 СЗ 2 н/о н/о +17.4 +13.1 76 +18 +18 1019.1 982.3
04 17.06 С 2 н/о н/о +18.7 +12.7 68 +20 +20 1018.9 982.3
05 17.06 С 2 н/о н/о +19.3 +12.6 65 +21 +21 комфорт 1019.0 982.4
06 17.06 С 1 н/о н/о +20.3 +12.8 62 +25 +25 комфорт 1018.8 982.4 +16.6
07 17.06 н/о н/о +22.7 +13.5 56 1018.7 982.6
08 17.06 СВ 3
{7}
н/о н/о +24.1 +14.5 55 +27 +27 жарко 1018.5 982.5
09 17.06 СВ 3
{7}
н/о н/о +24.2 +14.6 55 +27 +27 жарко 1018.4 982.5
10 17.06 В 2 н/о н/о +23.4 +14.7 58 +27 +27 душно 1018.5 982.5
11 17.06 СВ 2 н/о н/о +23.9 +14.9 57 +27 +27 жарко 1018.5 982.5
12 17.06 СВ 3
{8}
н/о н/о +24.8 +15.4 56 +28 +28 жарко 1018.0 982.1
13 17.06 СВ 3
{9}
н/о н/о +24.7 +15.9 58 +28 +28 душно 1017.9 982.0
14 17.06 СВ 2
{7}
н/о н/о +25.4 +16.0 56 +29 +29 душно 1017.1 981.3
15 17.06 СВ 2
{7}
н/о н/о +24.0 +15.8 60 +27 +27 жарко 1017.1 981.2
16 17.06 СВ 1 н/о н/о +24.1 +16.1 61 +27 +27 жарко 1016.9 981.0
17 17.06 С 2
{7}
н/о н/о +23.9 +15.7 60 +27 +27 жарко 1016.9 981.0
18 17.06 СВ 2
{8}
н/о н/о +23.6 +15.6 61 +27 +27 жарко 1017.0 981.0 +25.6
19 17.06 В 1
{8}
н/о н/о +19.0 +17.7 92 +22 +22 комфорт 1018.2 981.6
20 17.06 штиль 0 н/о н/о +18.5 +17.9 96 +19 +19 1018.4 981.8
21 17.06 С 1 н/о н/о +18.1 +17.5 96 +19 +19 1018.2 981.5
22 17.06 С 2 н/о н/о +18.0 +17.0 94 +19 +19 1018.2 981.5
23 17.06 С 1 н/о н/о +17.2 +16.6 96 +18 +18 1018.4 981.6
00 18.06 С 1 н/о н/о +16.8 +15.8 94 +18 +18 1018.1 981.3 0.4
01 18.06 СЗ 2 н/о н/о +17.3 +15.8 91 +18 +18 1017.4 980.7
02 18.06 СЗ 1 н/о н/о +16.7 +15.6 93 +18 +18 1017.4 980.6
03 18.06 штиль 0 н/о н/о +15.7 +14.9 95 +15 +15 1017.9 980.9
04 18.06 С 1 н/о н/о +17.3 +15.5 89 +18 +18 1017.6 980.8
05 18.06 В 1 н/о н/о +18.9 +15.6 81 +21 +21 комфорт 1017.6 981.0
06 18.06 В 2 н/о н/о +21.0 +16.6 76 +25 +25 комфорт 1017.8 981.5 +15.6 0.4
07 18.06 ЮВ 2 н/о н/о +20.7 +15.7 73 +24 +24 комфорт 1018.2 981.8
08 18.06 В 1 н/о н/о +21.7 +16.2 71 +25 +25 комфорт 1017.9 981.7
09 18.06 ЮВ 2 н/о н/о +23.9 +16.4 63 +27 +27 жарко 1017.4 981.5
10 18.06 ЮВ 1 н/о н/о +23.9 +16.4 63 +27 +27 жарко 1017.1 981.2
11 18.06 ЮВ 2 н/о н/о +24.9 +16.9 61 +29 +29 душно 1016.6 980.8
12 18.06 ЮВ 2 н/о н/о +25.0 +16.7 60 +29 +29 душно 1016.3 980.5
13 18.06 В 2 н/о н/о +24.9 +15.8 57 +28 +28 жарко 1015.9 980.1
14 18.06 ЮВ 3 н/о н/о +25.1 +17.1 61 +29 +29 душно 1015.2 979.5
15 18.06 Ю 2 н/о н/о +24.1 +17.1 65 +28 +28 душно 1014.9 979.1
16 18.06 Ю 2 н/о н/о +25.1 +17.3 62 +29 +29 душно 1014.5 978.8
17 18.06 Ю 1 н/о н/о +24.1 +17.6 67 +28 +28 душно 1014.5 978.7
18 18.06 штиль 0 н/о н/о +22.9 +17.8 73 +28 +28 душно 1014.9 978.9 +25.9
19 18.06 штиль 0 н/о н/о +20.6 +17.4 82 +24 +24 комфорт 1015.2 978.9
20 18.06 штиль 0 н/о н/о +19.5 +17.3 87 +22 +22 комфорт 1015.7 979.3
21 18.06 штиль 0 н/о н/о +18.5 +17.0 91 +19 +19 1015.5 979.0
22 18.06 штиль 0 н/о н/о +17.8 +16.8 94 +18 +18 1015.4 978.8
23 18.06 штиль 0 н/о н/о +17.5 +16.9 96 +17 +17 1015.2 978.6
00 19.06 СЗ 1 н/о н/о +17.5 +16.7 95 +19 +19 1014.9 978.3
01 19.06 З 1 н/о н/о +17.4 +16.6 95 +18 +18 1014.8 978.2
02 19.06 З 1 н/о н/о +16.8 +16.3 97 +18 +18 1014.3 977.6
03 19.06 штиль 0 н/о н/о +16.0 +15.7 98 +16 +16 1014.6 977.8
04 19.06 штиль 0 н/о н/о +16.1 +15.9 99 +16 +16 1014.5 977.7
05 19.06 штиль 0 н/о н/о +17.9 +17.4 97 +18 +18 1014.1 977.5
06 19.06 ЮВ 1 н/о н/о +21.8 +18.8 83 +27 +27 душно 1013.9 977.8 +15.9
07 19.06 Ю 1 н/о н/о +23.8 +17.8 69 +28 +28 душно 1013.5 977.7
08 19.06 Ю 1 н/о н/о +25.3 +18.7 67 +30 +30 душно 1013.2 977.6
09 19.06 ЮВ 2 н/о н/о +26.3 +17.9 60 +31 +31 душно 1012.9 977.4
10 19.06 ЮВ 2 н/о н/о +27.2 +17.9 57 +32 +32 очень
душно
1012.4 977.0
11 19.06 Ю 2 н/о н/о +27.3 +16.9 53 +31 +31 душно 1011.5 976.2
12 19.06 ЮЗ 2 н/о н/о +28.2 +16.8 50 +32 +32 душно 1011.2 976.0
13 19.06 Ю 2 н/о н/о +28.6 +16.8 49 +32 +32 душно 1011.0 975.8
14 19.06 Ю 3
{7}
н/о н/о +28.1 +17.0 51 +32 +32 душно 1010.2 975.0
15 19.06 Ю 3
{8}
н/о н/о +26.5 +18.6 62 +31 +31 душно 1010.1 974.7
16 19.06 Ю 2 н/о н/о +26.2 +19.3 66 +32 +32 очень
душно
1009.5 974.1
17 19.06 СЗ 3
{8}
н/о н/о +24.9 +14.4 52 +27 +27 жарко 1010.7 975.1
18 19.06 СЗ 2 н/о н/о +23.5 +14.5 57 +26 +26 жарко 1011.0 975.2 +29.3
19 19.06 З 1 н/о н/о +21.1 +14.5 66 +24 +24 комфорт 1011.6 975.5
20 19.06 Ю 2 н/о н/о +18.7 +15.0 79 +20 +20 1011.1 974.8
21 19.06 С 1 н/о н/о +18.5 +14.0 75 +20 +20 1012.0 975.6
22 19.06 штиль 0 н/о н/о +17.9 +14.6 81 +18 +18 1012.3 975.8
23 19.06 штиль 0 н/о н/о +17.7 +14.6 82 +18 +18 1012.2 975.7
00 20.06 З 1 н/о н/о +16.8 +14.3 85 +18 +18 1012.2 975.6

 

Местоположение метеостанции Сентготтхард (Венгрия): широта 46.92 долгота 16.32 высота над уровнем моря 313 м.

В архиве по умолчанию представлена погода в Сентготтхарде за последнюю неделю. Архивные данные за месяц целиком и за предыдущие месяцы, начиная с января 2011 года, Вы можете получить, выбрав интересующий диапазон дат из раскрывающегося списка и нажав кнопку "Ввод!".


*Определитесь, кто Вы:
робот инопланетянин человек

Внимание! Время в таблицах - всемирное. Для получения местного времени необходимо прибавить поправку, которая равна 1 ч.

Смотрите также архив погоды в соседних городах и на ближайших метеорологических станциях:

Погода в Кляйнциккене (Австрия) (31 км)
Погода в Мурска-Соботе (Словения) (32 км)
Погода в Бад-Глайхенбере (Австрия) (32 км)
Погода в Фельбахе (Австрия) (34 км)
Погода в Залаэгерсеге (Венгрия) (37 км)
Погода в Бад-Радкерсбурге (Австрия) (37 км)
Погода в Сомбатхее (Венгрия) (45 км)
Погода в Бад-Тацмансдорфе (Австрия) (46 км)
Погода в Хартберге (Австрия) (48 км)
Погода в Ласницхёэ (Австрия) (59 км)

Пояснения к столбцам:

Ветер - указаны скорость ветра в м/с - средняя за 10 мин, порывы в срок и между сроками (в фигурных скобках) и направление, откуда дует ветер: С - северный, СВ - северо-восточный, В - восточный, ЮВ - юго-восточный, Ю - южный, ЮЗ - юго-западный, З - западный, СЗ - северо-западный.
Видимость - горизонтальная дальность видимости в метрах или километрах. При видимости от 1 до 10 км при отсутствии осадков обычно наблюдается дымка, при ухудшении видимости до 1 км и менее - туман. В сухую погоду видимость может ухудшаться дымом, пылью или мглою.
Явления - указаны атмосферные явления, наблюдавшиеся в срок или в последний час перед сроком; фигурными скобками обозначены явления, наблюдавшиеся между сроками (за 1-3 часа до срока); квадратными скобками обозначены град или гололедные отложения с указанием их диаметра в мм.
Облачность - указаны через наклонную черту общая и нижняя облачность в баллах и высота нижней границы облаков в метрах; квадратными скобками обозначены формы облаков: Ci - перистые, Cs - перисто-слоистые, Cc - перисто-кучевые, Ac - высококучевые, As - высокослоистые, Sc - слоисто-кучевые, Ns - слоисто-дождевые, Cu - кучевые, Cb - кучево-дождевые. Подробнее классификацию облаков см. в Атласе облаков (PDF).
T - Температура воздуха - температура, измеренная на высоте 2 м над землей.
Td - Температура точки росы - температура, при понижении до которой содержащийся в воздухе водяной пар достигнет насыщения.
f - Относительная влажность воздуха - влажноcть воздуха, измеренная на высоте 2 м над землей.
Te - Эффективная температура - температура, которую ощущает одетый по сезону человек в тени. Характеристика душности погоды. При расчете учитывается влияние влажности воздуха и скорости ветра на теплоощущения человека.
Tes - Эффективная температура на солнце - температура, которую ощущает человек, с поправкой на солнечный нагрев. Характеристика знойности погоды. Зависит от высоты солнца над горизонтом, облачности и скорости ветра. Ночью, в пасмурную погоду, а также при ветре 12 м/с и более поправка равна нулю.
P - Атмосферное давление - приведенное к уровню моря атмосферное давление.
Po - Атмосферное давление - измеренное на уровне метеостанции атмосферное давление.
Tmin - Минимальная температура - минимум температуры воздуха на высоте 2 м над землей.
Tmax - Максимальная температура - максимум температуры воздуха на высоте 2 м над землей.
R - Количество осадков - Количество выпавших осадков за период времени, мм. При наведении курсора мыши на число - период времени, за который выпало указанное количество осадков.
R24 - Количество осадков - Количество выпавших осадков за 24 часа, мм.
S - Снежный покров - Высота снежного покрова, см. При наведении курсора мыши на число - состояние снежного покрова и степень покрытия местности в баллах.